Year,Month,Day,Hour,Minute,Value (Times are PST for temperature in C)
2009,07,28,00,00,20.50
2009,07,28,00,01,20.50
2009,07,28,00,02,20.60
2009,07,28,00,03,20.60
2009,07,28,00,04,20.60
2009,07,28,00,05,20.70
2009,07,28,00,06,20.70
2009,07,28,00,07,20.70
2009,07,28,00,08,20.70
2009,07,28,00,09,20.80
2009,07,28,00,10,20.80
2009,07,28,00,11,20.80
2009,07,28,00,12,20.80
2009,07,28,00,13,20.80
2009,07,28,00,14,20.90
2009,07,28,00,15,20.90
2009,07,28,00,16,20.90
2009,07,28,00,17,20.90
2009,07,28,00,18,20.90
2009,07,28,00,19,20.90
2009,07,28,00,20,21.00
2009,07,28,00,21,21.00
2009,07,28,00,22,21.00
2009,07,28,00,23,21.10
2009,07,28,00,24,21.10
2009,07,28,00,25,21.10
2009,07,28,00,26,21.20
2009,07,28,00,27,21.20
2009,07,28,00,28,21.20
2009,07,28,00,29,21.30
2009,07,28,00,30,21.30
2009,07,28,00,31,21.30
2009,07,28,00,32,21.30
2009,07,28,00,33,21.30
2009,07,28,00,34,21.30
2009,07,28,00,35,21.30
2009,07,28,00,36,21.30
2009,07,28,00,37,21.30
2009,07,28,00,38,21.40
2009,07,28,00,39,21.40
2009,07,28,00,40,21.40
2009,07,28,00,41,21.40
2009,07,28,00,42,21.50
2009,07,28,00,43,21.60
2009,07,28,00,44,21.60
2009,07,28,00,45,21.60
2009,07,28,00,46,21.60
2009,07,28,00,47,21.60
2009,07,28,00,48,21.60
2009,07,28,00,49,21.60
2009,07,28,00,50,21.60
2009,07,28,00,51,21.60
2009,07,28,00,52,21.60
2009,07,28,00,53,21.60
2009,07,28,00,54,21.60
2009,07,28,00,55,21.50
2009,07,28,00,56,21.40
2009,07,28,00,57,21.40
2009,07,28,00,58,21.40
2009,07,28,00,59,21.40
2009,07,28,01,00,21.30
2009,07,28,01,01,21.30
2009,07,28,01,02,21.30
2009,07,28,01,03,21.30
2009,07,28,01,04,21.30
2009,07,28,01,05,21.30
2009,07,28,01,06,21.30
2009,07,28,01,07,21.30
2009,07,28,01,08,21.30
2009,07,28,01,09,21.30
2009,07,28,01,10,21.20
2009,07,28,01,11,21.20
2009,07,28,01,12,21.10
2009,07,28,01,13,21.10
2009,07,28,01,14,21.00
2009,07,28,01,15,20.90
2009,07,28,01,16,20.90
2009,07,28,01,17,20.80
2009,07,28,01,18,20.80
2009,07,28,01,19,20.80
2009,07,28,01,20,20.80
2009,07,28,01,21,20.80
2009,07,28,01,22,20.80
2009,07,28,01,23,20.80
2009,07,28,01,24,20.80
2009,07,28,01,25,20.80
2009,07,28,01,26,20.80
2009,07,28,01,27,20.80
2009,07,28,01,28,20.80
2009,07,28,01,29,20.80
2009,07,28,01,30,20.80
2009,07,28,01,31,20.80
2009,07,28,01,32,20.80
2009,07,28,01,33,20.80
2009,07,28,01,34,20.70
2009,07,28,01,35,20.70
2009,07,28,01,36,20.70
2009,07,28,01,37,20.60
2009,07,28,01,38,20.60
2009,07,28,01,39,20.60
2009,07,28,01,40,20.60
2009,07,28,01,41,20.60
2009,07,28,01,42,20.60
2009,07,28,01,43,20.60
2009,07,28,01,44,20.60
2009,07,28,01,45,20.60
2009,07,28,01,46,20.60
2009,07,28,01,47,20.60
2009,07,28,01,48,20.60
2009,07,28,01,49,20.60
2009,07,28,01,50,20.60
2009,07,28,01,51,20.60
2009,07,28,01,52,20.60
2009,07,28,01,53,20.60
2009,07,28,01,54,20.60
2009,07,28,01,55,20.60
2009,07,28,01,56,20.60
2009,07,28,01,57,20.60
2009,07,28,01,58,20.60
2009,07,28,01,59,20.60
2009,07,28,02,00,20.60
2009,07,28,02,01,20.60
2009,07,28,02,02,20.60
2009,07,28,02,03,20.60
2009,07,28,02,04,20.60
2009,07,28,02,05,20.60
2009,07,28,02,06,20.60
2009,07,28,02,07,20.60
2009,07,28,02,08,20.60
2009,07,28,02,09,20.60
2009,07,28,02,10,20.60
2009,07,28,02,11,20.60
2009,07,28,02,12,20.60
2009,07,28,02,13,20.60
2009,07,28,02,14,20.60
2009,07,28,02,15,20.60
2009,07,28,02,16,20.60
2009,07,28,02,17,20.60
2009,07,28,02,18,20.60
2009,07,28,02,19,20.60
2009,07,28,02,20,20.60
2009,07,28,02,21,20.60
2009,07,28,02,22,20.60
2009,07,28,02,23,20.50
2009,07,28,02,24,20.50
2009,07,28,02,25,20.50
2009,07,28,02,26,20.50
2009,07,28,02,27,20.50
2009,07,28,02,28,20.50
2009,07,28,02,29,20.50
2009,07,28,02,30,20.50
2009,07,28,02,31,20.40
2009,07,28,02,32,20.40
2009,07,28,02,33,20.40
2009,07,28,02,34,20.40
2009,07,28,02,35,20.40
2009,07,28,02,36,20.40
2009,07,28,02,37,20.40
2009,07,28,02,38,20.30
2009,07,28,02,39,20.30
2009,07,28,02,40,20.20
2009,07,28,02,41,20.20
2009,07,28,02,42,20.20
2009,07,28,02,43,20.20
2009,07,28,02,44,20.20
2009,07,28,02,45,20.20
2009,07,28,02,46,20.20
2009,07,28,02,47,20.20
2009,07,28,02,48,20.20
2009,07,28,02,49,20.20
2009,07,28,02,50,20.20
2009,07,28,02,51,20.20
2009,07,28,02,52,20.20
2009,07,28,02,53,20.20
2009,07,28,02,54,20.20
2009,07,28,02,55,20.20
2009,07,28,02,56,20.20
2009,07,28,02,57,20.10
2009,07,28,02,58,20.10
2009,07,28,02,59,20.10
2009,07,28,03,00,20.10
2009,07,28,03,01,20.10
2009,07,28,03,02,20.10
2009,07,28,03,03,20.10
2009,07,28,03,04,20.10
2009,07,28,03,05,20.10
2009,07,28,03,06,20.10
2009,07,28,03,07,20.00
2009,07,28,03,08,20.00
2009,07,28,03,09,19.90
2009,07,28,03,10,19.90
2009,07,28,03,11,19.90
2009,07,28,03,12,19.90
2009,07,28,03,13,19.90
2009,07,28,03,14,19.90
2009,07,28,03,15,19.90
2009,07,28,03,16,19.90
2009,07,28,03,17,19.90
2009,07,28,03,18,19.90
2009,07,28,03,19,19.90
2009,07,28,03,20,19.90
2009,07,28,03,21,19.90
2009,07,28,03,22,19.90
2009,07,28,03,23,19.90
2009,07,28,03,24,19.90
2009,07,28,03,25,19.90
2009,07,28,03,26,19.90
2009,07,28,03,27,19.90
2009,07,28,03,28,19.90
2009,07,28,03,29,19.90
2009,07,28,03,30,19.80
2009,07,28,03,31,19.80
2009,07,28,03,32,19.80
2009,07,28,03,33,19.80
2009,07,28,03,34,19.80
2009,07,28,03,35,19.80
2009,07,28,03,36,19.80
2009,07,28,03,37,19.70
2009,07,28,03,38,19.50
2009,07,28,03,39,19.20
2009,07,28,03,40,19.00
2009,07,28,03,41,18.80
2009,07,28,03,42,18.60
2009,07,28,03,43,18.40
2009,07,28,03,44,18.10
2009,07,28,03,45,17.80
2009,07,28,03,46,17.60
2009,07,28,03,47,17.40
2009,07,28,03,48,17.20
2009,07,28,03,49,17.00
2009,07,28,03,50,16.80
2009,07,28,03,51,16.70
2009,07,28,03,52,16.50
2009,07,28,03,53,16.40
2009,07,28,03,54,16.30
2009,07,28,03,55,16.20
2009,07,28,03,56,16.20
2009,07,28,03,57,16.10
2009,07,28,03,58,16.10
2009,07,28,03,59,16.10
2009,07,28,04,00,16.10
2009,07,28,04,01,16.00
2009,07,28,04,02,15.90
2009,07,28,04,03,15.90
2009,07,28,04,04,15.90
2009,07,28,04,05,15.90
2009,07,28,04,06,15.90
2009,07,28,04,07,16.00
2009,07,28,04,08,16.10
2009,07,28,04,09,16.10
2009,07,28,04,10,16.10
2009,07,28,04,11,16.20
2009,07,28,04,12,16.20
2009,07,28,04,13,16.30
2009,07,28,04,14,16.40
2009,07,28,04,15,16.40
2009,07,28,04,16,16.50
2009,07,28,04,17,16.60
2009,07,28,04,18,16.60
2009,07,28,04,19,16.60
2009,07,28,04,20,16.70
2009,07,28,04,21,16.70
2009,07,28,04,22,16.70
2009,07,28,04,23,16.70
2009,07,28,04,24,16.70
2009,07,28,04,25,16.70
2009,07,28,04,26,16.70
2009,07,28,04,27,16.70
2009,07,28,04,28,16.70
2009,07,28,04,29,16.70
2009,07,28,04,30,16.70
2009,07,28,04,31,16.70
2009,07,28,04,32,16.70
2009,07,28,04,33,16.70
2009,07,28,04,34,16.70
2009,07,28,04,35,16.70
2009,07,28,04,36,16.70
2009,07,28,04,37,16.70
2009,07,28,04,38,16.70
2009,07,28,04,39,16.80
2009,07,28,04,40,16.80
2009,07,28,04,41,16.80
2009,07,28,04,42,16.80
2009,07,28,04,43,16.80
2009,07,28,04,44,16.80
2009,07,28,04,45,16.80
2009,07,28,04,46,16.80
2009,07,28,04,47,16.80
2009,07,28,04,48,16.70
2009,07,28,04,49,16.70
2009,07,28,04,50,16.70
2009,07,28,04,51,16.70
2009,07,28,04,52,16.80
2009,07,28,04,53,16.70
2009,07,28,04,54,16.70
2009,07,28,04,55,16.70
2009,07,28,04,56,16.70
2009,07,28,04,57,16.70
2009,07,28,04,58,16.70
2009,07,28,04,59,16.70
2009,07,28,05,00,16.70
2009,07,28,05,01,16.70
2009,07,28,05,02,16.70
2009,07,28,05,03,16.70
2009,07,28,05,04,16.70
2009,07,28,05,05,16.70
2009,07,28,05,06,16.70
2009,07,28,05,07,16.70
2009,07,28,05,08,16.60
2009,07,28,05,09,16.60
2009,07,28,05,10,16.50
2009,07,28,05,11,16.40
2009,07,28,05,12,16.40
2009,07,28,05,13,16.30
2009,07,28,05,14,16.30
2009,07,28,05,15,16.20
2009,07,28,05,16,16.20
2009,07,28,05,17,16.10
2009,07,28,05,18,16.10
2009,07,28,05,19,16.10
2009,07,28,05,20,16.00
2009,07,28,05,21,15.90
2009,07,28,05,22,15.90
2009,07,28,05,23,15.80
2009,07,28,05,24,15.80
2009,07,28,05,25,15.80
2009,07,28,05,26,15.70
2009,07,28,05,27,15.60
2009,07,28,05,28,15.50
2009,07,28,05,29,15.40
2009,07,28,05,30,15.30
2009,07,28,05,31,15.30
2009,07,28,05,32,15.20
2009,07,28,05,33,15.20
2009,07,28,05,34,15.10
2009,07,28,05,35,15.00
2009,07,28,05,36,15.00
2009,07,28,05,37,14.90
2009,07,28,05,38,14.80
2009,07,28,05,39,14.70
2009,07,28,05,40,14.50
2009,07,28,05,41,14.40
2009,07,28,05,42,14.40
2009,07,28,05,43,14.30
2009,07,28,05,44,14.20
2009,07,28,05,45,14.20
2009,07,28,05,46,14.20
2009,07,28,05,47,14.20
2009,07,28,05,48,14.10
2009,07,28,05,49,14.10
2009,07,28,05,50,14.10
2009,07,28,05,51,14.10
2009,07,28,05,52,14.10
2009,07,28,05,53,14.10
2009,07,28,05,54,14.10
2009,07,28,05,55,14.10
2009,07,28,05,56,14.10
2009,07,28,05,57,14.10
2009,07,28,05,58,14.10
2009,07,28,05,59,14.10
2009,07,28,06,00,14.10
2009,07,28,06,01,14.20
2009,07,28,06,02,14.20
2009,07,28,06,03,14.20
2009,07,28,06,04,14.20
2009,07,28,06,05,14.20
2009,07,28,06,06,14.20
2009,07,28,06,07,14.20
2009,07,28,06,08,14.30
2009,07,28,06,09,14.30
2009,07,28,06,10,14.40
2009,07,28,06,11,14.40
2009,07,28,06,12,14.50
2009,07,28,06,13,14.60
2009,07,28,06,14,14.60
2009,07,28,06,15,14.70
2009,07,28,06,16,14.80
2009,07,28,06,17,14.80
2009,07,28,06,18,14.90
2009,07,28,06,19,15.00
2009,07,28,06,20,15.10
2009,07,28,06,21,15.20
2009,07,28,06,22,15.30
2009,07,28,06,23,15.30
2009,07,28,06,24,15.30
2009,07,28,06,25,15.40
2009,07,28,06,26,15.50
2009,07,28,06,27,15.50
2009,07,28,06,28,15.60
2009,07,28,06,29,15.70
2009,07,28,06,30,15.80
2009,07,28,06,31,16.00
2009,07,28,06,32,16.10
2009,07,28,06,33,16.20
2009,07,28,06,34,16.20
2009,07,28,06,35,16.20
2009,07,28,06,36,16.20
2009,07,28,06,37,16.20
2009,07,28,06,38,16.20
2009,07,28,06,39,16.30
2009,07,28,06,40,16.30
2009,07,28,06,41,16.30
2009,07,28,06,42,16.30
2009,07,28,06,43,16.40
2009,07,28,06,44,16.40
2009,07,28,06,45,16.40
2009,07,28,06,46,16.40
2009,07,28,06,47,16.50
2009,07,28,06,48,16.60
2009,07,28,06,49,16.70
2009,07,28,06,50,16.70
2009,07,28,06,51,16.70
2009,07,28,06,52,16.70
2009,07,28,06,53,16.80
2009,07,28,06,54,16.80
2009,07,28,06,55,16.90
2009,07,28,06,56,16.90
2009,07,28,06,57,16.90
2009,07,28,06,58,17.00
2009,07,28,06,59,17.00
2009,07,28,07,00,17.10
2009,07,28,07,01,17.10
2009,07,28,07,02,17.20
2009,07,28,07,03,17.20
2009,07,28,07,04,17.20
2009,07,28,07,05,17.30
2009,07,28,07,06,17.30
2009,07,28,07,07,17.30
2009,07,28,07,08,17.30
2009,07,28,07,09,17.30
2009,07,28,07,10,17.30
2009,07,28,07,11,17.20
2009,07,28,07,12,17.20
2009,07,28,07,13,17.10
2009,07,28,07,14,17.00
2009,07,28,07,15,17.00
2009,07,28,07,16,16.90
2009,07,28,07,17,16.90
2009,07,28,07,18,16.90
2009,07,28,07,19,16.80
2009,07,28,07,20,16.80
2009,07,28,07,21,16.80
2009,07,28,07,22,16.80
2009,07,28,07,23,16.80
2009,07,28,07,24,16.80
2009,07,28,07,25,16.90
2009,07,28,07,26,16.90
2009,07,28,07,27,16.90
2009,07,28,07,28,16.90
2009,07,28,07,29,16.90
2009,07,28,07,30,16.90
2009,07,28,07,31,16.90
2009,07,28,07,32,16.90
2009,07,28,07,33,16.90
2009,07,28,07,34,16.90
2009,07,28,07,35,16.90
2009,07,28,07,36,17.00
2009,07,28,07,37,17.00
2009,07,28,07,38,17.00
2009,07,28,07,39,17.10
2009,07,28,07,40,17.10
2009,07,28,07,41,17.20
2009,07,28,07,42,17.20
2009,07,28,07,43,17.20
2009,07,28,07,44,17.30
2009,07,28,07,45,17.30
2009,07,28,07,46,17.30
2009,07,28,07,47,17.30
2009,07,28,07,48,17.30
2009,07,28,07,49,17.40
2009,07,28,07,50,17.40
2009,07,28,07,51,17.50
2009,07,28,07,52,17.60
2009,07,28,07,53,17.60
2009,07,28,07,54,17.70
2009,07,28,07,55,17.80
2009,07,28,07,56,17.90
2009,07,28,07,57,17.90
2009,07,28,07,58,18.00
2009,07,28,07,59,18.10
2009,07,28,08,00,18.10
2009,07,28,08,01,18.20
2009,07,28,08,02,18.20
2009,07,28,08,03,18.30
2009,07,28,08,04,18.40
2009,07,28,08,05,18.50
2009,07,28,08,06,18.50
2009,07,28,08,07,18.60
2009,07,28,08,08,18.70
2009,07,28,08,09,18.80
2009,07,28,08,10,18.80
2009,07,28,08,11,18.90
2009,07,28,08,12,18.90
2009,07,28,08,13,18.90
2009,07,28,08,14,18.90
2009,07,28,08,15,18.90
2009,07,28,08,16,18.90
2009,07,28,08,17,18.90
2009,07,28,08,18,18.90
2009,07,28,08,19,19.00
2009,07,28,08,20,19.10
2009,07,28,08,21,19.10
2009,07,28,08,22,19.10
2009,07,28,08,23,19.10
2009,07,28,08,24,19.20
2009,07,28,08,25,19.20
2009,07,28,08,26,19.30
2009,07,28,08,27,19.40
2009,07,28,08,28,19.40
2009,07,28,08,29,19.50
2009,07,28,08,30,19.60
2009,07,28,08,31,19.70
2009,07,28,08,32,19.80
2009,07,28,08,33,19.90
2009,07,28,08,34,19.90
2009,07,28,08,35,20.00
2009,07,28,08,36,20.10
2009,07,28,08,37,20.20
2009,07,28,08,38,20.20
2009,07,28,08,39,20.30
2009,07,28,08,40,20.50
2009,07,28,08,41,20.50
2009,07,28,08,42,20.60
2009,07,28,08,43,20.60
2009,07,28,08,44,20.60
2009,07,28,08,45,20.60
2009,07,28,08,46,20.50
2009,07,28,08,47,20.50
2009,07,28,08,48,20.40
2009,07,28,08,49,20.20
2009,07,28,08,50,20.20
2009,07,28,08,51,20.00
2009,07,28,08,52,19.90
2009,07,28,08,53,19.80
2009,07,28,08,54,19.70
2009,07,28,08,55,19.70
2009,07,28,08,56,19.60
2009,07,28,08,57,19.60
2009,07,28,08,58,19.60
2009,07,28,08,59,19.50
2009,07,28,09,00,19.40
2009,07,28,09,01,19.30
2009,07,28,09,02,19.20
2009,07,28,09,03,19.20
2009,07,28,09,04,19.20
2009,07,28,09,05,19.10
2009,07,28,09,06,19.10
2009,07,28,09,07,19.10
2009,07,28,09,08,19.00
2009,07,28,09,09,18.90
2009,07,28,09,10,18.90
2009,07,28,09,11,18.80
2009,07,28,09,12,18.90
2009,07,28,09,13,18.90
2009,07,28,09,14,18.90
2009,07,28,09,15,19.00
2009,07,28,09,16,19.10
2009,07,28,09,17,19.10
2009,07,28,09,18,19.10
2009,07,28,09,19,19.20
2009,07,28,09,20,19.30
2009,07,28,09,21,19.40
2009,07,28,09,22,19.40
2009,07,28,09,23,19.40
2009,07,28,09,24,19.40
2009,07,28,09,25,19.50
2009,07,28,09,26,19.60
2009,07,28,09,27,19.70
2009,07,28,09,28,19.80
2009,07,28,09,29,19.90
2009,07,28,09,30,19.90
2009,07,28,09,31,20.00
2009,07,28,09,32,20.10
2009,07,28,09,33,20.10
2009,07,28,09,34,20.20
2009,07,28,09,35,20.20
2009,07,28,09,36,20.30
2009,07,28,09,37,20.40
2009,07,28,09,38,20.50
2009,07,28,09,39,20.50
2009,07,28,09,40,20.50
2009,07,28,09,41,20.50
2009,07,28,09,42,20.50
2009,07,28,09,43,20.50
2009,07,28,09,44,20.50
2009,07,28,09,45,20.50
2009,07,28,09,46,20.60
2009,07,28,09,47,20.80
2009,07,28,09,48,20.80
2009,07,28,09,49,20.90
2009,07,28,09,50,20.90
2009,07,28,09,51,21.00
2009,07,28,09,52,21.10
2009,07,28,09,53,21.10
2009,07,28,09,54,21.10
2009,07,28,09,55,21.20
2009,07,28,09,56,21.20
2009,07,28,09,57,21.30
2009,07,28,09,58,21.30
2009,07,28,09,59,21.50
2009,07,28,10,00,21.60
2009,07,28,10,01,21.60
2009,07,28,10,02,21.60
2009,07,28,10,03,21.60
2009,07,28,10,04,21.70
2009,07,28,10,05,21.80
2009,07,28,10,06,21.90
2009,07,28,10,07,21.90
2009,07,28,10,08,21.90
2009,07,28,10,09,21.90
2009,07,28,10,10,21.90
2009,07,28,10,11,21.90
2009,07,28,10,12,22.00
2009,07,28,10,13,22.10
2009,07,28,10,14,22.30
2009,07,28,10,15,22.60
2009,07,28,10,16,22.70
2009,07,28,10,17,22.90
2009,07,28,10,18,23.20
2009,07,28,10,19,23.60
2009,07,28,10,20,24.20
2009,07,28,10,21,24.60
2009,07,28,10,22,25.10
2009,07,28,10,23,25.50
2009,07,28,10,24,25.90
2009,07,28,10,25,26.20
2009,07,28,10,26,26.50
2009,07,28,10,27,26.70
2009,07,28,10,28,26.90
2009,07,28,10,29,27.10
2009,07,28,10,30,27.30
2009,07,28,10,31,27.40
2009,07,28,10,32,27.60
2009,07,28,10,33,27.70
2009,07,28,10,34,27.80
2009,07,28,10,35,27.90
2009,07,28,10,36,28.00
2009,07,28,10,37,27.90
2009,07,28,10,38,27.70
2009,07,28,10,39,27.50
2009,07,28,10,40,27.20
2009,07,28,10,41,26.60
2009,07,28,10,42,26.00
2009,07,28,10,43,25.30
2009,07,28,10,44,24.80
2009,07,28,10,45,24.30
2009,07,28,10,46,23.80
2009,07,28,10,47,23.70
2009,07,28,10,48,23.50
2009,07,28,10,49,23.40
2009,07,28,10,50,23.30
2009,07,28,10,51,23.30
2009,07,28,10,52,23.30
2009,07,28,10,53,23.20
2009,07,28,10,54,23.20
2009,07,28,10,55,23.10
2009,07,28,10,56,23.20
2009,07,28,10,57,23.30
2009,07,28,10,58,23.30
2009,07,28,10,59,23.40
2009,07,28,11,00,23.50
2009,07,28,11,01,23.60
2009,07,28,11,02,23.70
2009,07,28,11,03,23.70
2009,07,28,11,04,23.70
2009,07,28,11,05,23.70
2009,07,28,11,06,23.70
2009,07,28,11,07,23.70
2009,07,28,11,08,23.70
2009,07,28,11,09,23.70
2009,07,28,11,10,23.80
2009,07,28,11,11,24.00
2009,07,28,11,12,24.40
2009,07,28,11,13,24.90
2009,07,28,11,14,25.50
2009,07,28,11,15,25.90
2009,07,28,11,16,26.30
2009,07,28,11,17,26.80
2009,07,28,11,18,27.20
2009,07,28,11,19,27.50
2009,07,28,11,20,27.60
2009,07,28,11,21,27.90
2009,07,28,11,22,28.10
2009,07,28,11,23,28.20
2009,07,28,11,24,28.30
2009,07,28,11,25,28.30
2009,07,28,11,26,28.40
2009,07,28,11,27,28.40
2009,07,28,11,28,28.50
2009,07,28,11,29,28.60
2009,07,28,11,30,28.70
2009,07,28,11,31,28.80
2009,07,28,11,32,28.80
2009,07,28,11,33,28.90
2009,07,28,11,34,28.90
2009,07,28,11,35,28.90
2009,07,28,11,36,28.90
2009,07,28,11,37,28.90
2009,07,28,11,38,29.10
2009,07,28,11,39,29.10
2009,07,28,11,40,29.10
2009,07,28,11,41,29.20
2009,07,28,11,42,29.10
2009,07,28,11,43,29.10
2009,07,28,11,44,29.20
2009,07,28,11,45,29.30
2009,07,28,11,46,29.00
2009,07,28,11,47,28.40
2009,07,28,11,48,27.60
2009,07,28,11,49,26.90
2009,07,28,11,50,26.30
2009,07,28,11,51,25.90
2009,07,28,11,52,25.60
2009,07,28,11,53,25.30
2009,07,28,11,54,25.00
2009,07,28,11,55,24.90
2009,07,28,11,56,24.70
2009,07,28,11,57,24.40
2009,07,28,11,58,24.30
2009,07,28,11,59,24.20
2009,07,28,12,00,24.20
2009,07,28,12,01,24.20
2009,07,28,12,02,24.10
2009,07,28,12,03,24.00
2009,07,28,12,04,23.90
2009,07,28,12,05,23.80
2009,07,28,12,06,23.90
2009,07,28,12,07,23.90
2009,07,28,12,08,24.10
2009,07,28,12,09,24.20
2009,07,28,12,10,24.30
2009,07,28,12,11,24.30
2009,07,28,12,12,24.20
2009,07,28,12,13,24.30
2009,07,28,12,14,24.20
2009,07,28,12,15,24.10
2009,07,28,12,16,24.10
2009,07,28,12,17,24.10
2009,07,28,12,18,24.10
2009,07,28,12,19,24.10
2009,07,28,12,20,24.10
2009,07,28,12,21,24.10
2009,07,28,12,22,24.20
2009,07,28,12,23,24.30
2009,07,28,12,24,24.40
2009,07,28,12,25,24.60
2009,07,28,12,26,24.80
2009,07,28,12,27,24.70
2009,07,28,12,28,24.60
2009,07,28,12,29,24.50
2009,07,28,12,30,24.50
2009,07,28,12,31,24.60
2009,07,28,12,32,24.70
2009,07,28,12,33,24.70
2009,07,28,12,34,24.80
2009,07,28,12,35,24.80
2009,07,28,12,36,24.80
2009,07,28,12,37,24.80
2009,07,28,12,38,24.80
2009,07,28,12,39,24.90
2009,07,28,12,40,24.90
2009,07,28,12,41,24.90
2009,07,28,12,42,25.00
2009,07,28,12,43,25.00
2009,07,28,12,44,24.90
2009,07,28,12,45,24.90
2009,07,28,12,46,24.80
2009,07,28,12,47,24.70
2009,07,28,12,48,24.70
2009,07,28,12,49,24.50
2009,07,28,12,50,24.40
2009,07,28,12,51,24.30
2009,07,28,12,52,24.40
2009,07,28,12,53,24.40
2009,07,28,12,54,24.40
2009,07,28,12,55,24.50
2009,07,28,12,56,24.60
2009,07,28,12,57,24.70
2009,07,28,12,58,24.80
2009,07,28,12,59,24.90
2009,07,28,13,00,25.10
2009,07,28,13,01,25.20
2009,07,28,13,02,25.20
2009,07,28,13,03,25.20
2009,07,28,13,04,25.30
2009,07,28,13,05,25.20
2009,07,28,13,06,25.20
2009,07,28,13,07,25.20
2009,07,28,13,08,25.50
2009,07,28,13,09,25.70
2009,07,28,13,10,25.80
2009,07,28,13,11,25.80
2009,07,28,13,12,25.80
2009,07,28,13,13,25.70
2009,07,28,13,14,25.60
2009,07,28,13,15,25.50
2009,07,28,13,16,25.50
2009,07,28,13,17,25.60
2009,07,28,13,18,25.60
2009,07,28,13,19,25.60
2009,07,28,13,20,25.50
2009,07,28,13,21,25.40
2009,07,28,13,22,25.40
2009,07,28,13,23,25.40
2009,07,28,13,24,25.30
2009,07,28,13,25,25.10
2009,07,28,13,26,25.20
2009,07,28,13,27,25.20
2009,07,28,13,28,25.10
2009,07,28,13,29,24.90
2009,07,28,13,30,24.90
2009,07,28,13,31,24.90
2009,07,28,13,32,24.70
2009,07,28,13,33,24.50
2009,07,28,13,34,24.20
2009,07,28,13,35,24.10
2009,07,28,13,36,24.20
2009,07,28,13,37,24.30
2009,07,28,13,38,24.30
2009,07,28,13,39,24.20
2009,07,28,13,40,24.10
2009,07,28,13,41,24.10
2009,07,28,13,42,24.30
2009,07,28,13,43,24.60
2009,07,28,13,44,24.70
2009,07,28,13,45,24.70
2009,07,28,13,46,24.70
2009,07,28,13,47,24.70
2009,07,28,13,48,24.60
2009,07,28,13,49,24.50
2009,07,28,13,50,24.50
2009,07,28,13,51,24.70
2009,07,28,13,52,24.80
2009,07,28,13,53,24.90
2009,07,28,13,54,24.90
2009,07,28,13,55,25.00
2009,07,28,13,56,25.20
2009,07,28,13,57,25.20
2009,07,28,13,58,25.20
2009,07,28,13,59,25.00
2009,07,28,14,00,24.70
2009,07,28,14,01,24.60
2009,07,28,14,02,24.70
2009,07,28,14,03,24.80
2009,07,28,14,04,24.90
2009,07,28,14,05,25.00
2009,07,28,14,06,25.20
2009,07,28,14,07,25.30
2009,07,28,14,08,25.30
2009,07,28,14,09,25.20
2009,07,28,14,10,25.20
2009,07,28,14,11,25.10
2009,07,28,14,12,25.30
2009,07,28,14,13,25.40
2009,07,28,14,14,25.50
2009,07,28,14,15,25.60
2009,07,28,14,16,25.60
2009,07,28,14,17,25.60
2009,07,28,14,18,25.70
2009,07,28,14,19,25.70
2009,07,28,14,20,25.60
2009,07,28,14,21,25.70
2009,07,28,14,22,25.70
2009,07,28,14,23,25.80
2009,07,28,14,24,25.80
2009,07,28,14,25,25.90
2009,07,28,14,26,25.90
2009,07,28,14,27,26.10
2009,07,28,14,28,26.30
2009,07,28,14,29,26.40
2009,07,28,14,30,26.40
2009,07,28,14,31,26.30
2009,07,28,14,32,26.30
2009,07,28,14,33,26.30
2009,07,28,14,34,26.40
2009,07,28,14,35,26.50
2009,07,28,14,36,26.60
2009,07,28,14,37,26.70
2009,07,28,14,38,26.80
2009,07,28,14,39,26.70
2009,07,28,14,40,26.70
2009,07,28,14,41,26.60
2009,07,28,14,42,26.50
2009,07,28,14,43,26.40
2009,07,28,14,44,26.50
2009,07,28,14,45,26.60
2009,07,28,14,46,26.70
2009,07,28,14,47,26.70
2009,07,28,14,48,26.80
2009,07,28,14,49,26.80
2009,07,28,14,50,26.70
2009,07,28,14,51,26.70
2009,07,28,14,52,26.70
2009,07,28,14,53,26.60
2009,07,28,14,54,26.60
2009,07,28,14,55,26.60
2009,07,28,14,56,26.80
2009,07,28,14,57,26.90
2009,07,28,14,58,27.00
2009,07,28,14,59,27.10
2009,07,28,15,00,27.20
2009,07,28,15,01,27.20
2009,07,28,15,02,27.30
2009,07,28,15,03,27.30
2009,07,28,15,04,27.20
2009,07,28,15,05,27.20
2009,07,28,15,06,27.30
2009,07,28,15,07,27.30
2009,07,28,15,08,27.40
2009,07,28,15,09,27.60
2009,07,28,15,10,27.70
2009,07,28,15,11,27.80
2009,07,28,15,12,27.90
2009,07,28,15,13,27.80
2009,07,28,15,14,27.80
2009,07,28,15,15,27.80
2009,07,28,15,16,27.90
2009,07,28,15,17,27.90
2009,07,28,15,18,27.90
2009,07,28,15,19,28.00
2009,07,28,15,20,28.00
2009,07,28,15,21,28.00
2009,07,28,15,22,27.90
2009,07,28,15,23,27.80
2009,07,28,15,24,27.80
2009,07,28,15,25,27.80
2009,07,28,15,26,27.90
2009,07,28,15,27,27.90
2009,07,28,15,28,27.90
2009,07,28,15,29,27.90
2009,07,28,15,30,28.00
2009,07,28,15,31,28.00
2009,07,28,15,32,28.20
2009,07,28,15,33,28.30
2009,07,28,15,34,28.30
2009,07,28,15,35,28.20
2009,07,28,15,36,28.00
2009,07,28,15,37,28.10
2009,07,28,15,38,28.10
2009,07,28,15,39,28.20
2009,07,28,15,40,28.30
2009,07,28,15,41,28.30
2009,07,28,15,42,28.30
2009,07,28,15,43,28.40
2009,07,28,15,44,28.40
2009,07,28,15,45,28.30
2009,07,28,15,46,28.00
2009,07,28,15,47,27.80
2009,07,28,15,48,27.60
2009,07,28,15,49,27.40
2009,07,28,15,50,27.30
2009,07,28,15,51,27.30
2009,07,28,15,52,27.30
2009,07,28,15,53,27.30
2009,07,28,15,54,27.40
2009,07,28,15,55,27.60
2009,07,28,15,56,27.80
2009,07,28,15,57,28.10
2009,07,28,15,58,28.30
2009,07,28,15,59,28.50
2009,07,28,16,00,28.70
2009,07,28,16,01,28.80
2009,07,28,16,02,28.80
2009,07,28,16,03,28.70
2009,07,28,16,04,28.70
2009,07,28,16,05,28.80
2009,07,28,16,06,28.80
2009,07,28,16,07,28.90
2009,07,28,16,08,28.90
2009,07,28,16,09,28.90
2009,07,28,16,10,28.90
2009,07,28,16,11,28.90
2009,07,28,16,12,28.90
2009,07,28,16,13,28.90
2009,07,28,16,14,29.10
2009,07,28,16,15,29.10
2009,07,28,16,16,29.20
2009,07,28,16,17,29.30
2009,07,28,16,18,29.40
2009,07,28,16,19,29.50
2009,07,28,16,20,29.70
2009,07,28,16,21,29.70
2009,07,28,16,22,29.70
2009,07,28,16,23,29.70
2009,07,28,16,24,29.70
2009,07,28,16,25,29.70
2009,07,28,16,26,29.60
2009,07,28,16,27,29.60
2009,07,28,16,28,29.60
2009,07,28,16,29,29.60
2009,07,28,16,30,29.60
2009,07,28,16,31,29.60
2009,07,28,16,32,29.60
2009,07,28,16,33,29.50
2009,07,28,16,34,29.30
2009,07,28,16,35,29.30
2009,07,28,16,36,29.30
2009,07,28,16,37,29.10
2009,07,28,16,38,29.10
2009,07,28,16,39,29.00
2009,07,28,16,40,28.90
2009,07,28,16,41,28.90
2009,07,28,16,42,28.90
2009,07,28,16,43,28.90
2009,07,28,16,44,29.00
2009,07,28,16,45,29.10
2009,07,28,16,46,29.20
2009,07,28,16,47,29.30
2009,07,28,16,48,29.40
2009,07,28,16,49,29.40
2009,07,28,16,50,29.40
2009,07,28,16,51,29.40
2009,07,28,16,52,29.60
2009,07,28,16,53,29.60
2009,07,28,16,54,29.60
2009,07,28,16,55,29.60
2009,07,28,16,56,29.70
2009,07,28,16,57,29.70
2009,07,28,16,58,29.70
2009,07,28,16,59,29.80
2009,07,28,17,00,29.90
2009,07,28,17,01,30.00
2009,07,28,17,02,30.10
2009,07,28,17,03,30.20
2009,07,28,17,04,30.20
2009,07,28,17,05,30.20
2009,07,28,17,06,30.20
2009,07,28,17,07,30.20
2009,07,28,17,08,30.20
2009,07,28,17,09,30.20
2009,07,28,17,10,30.10
2009,07,28,17,11,30.10
2009,07,28,17,12,30.10
2009,07,28,17,13,30.10
2009,07,28,17,14,30.20
2009,07,28,17,15,30.20
2009,07,28,17,16,30.20
2009,07,28,17,17,30.20
2009,07,28,17,18,30.30
2009,07,28,17,19,30.30